Location: Newark
(8.3667°S, 17.0167°E)
Time: 04:23:59
(UTC+00:00)

N. Korean satellite - Visible Passes

Search period start: 22 January 2021 00:00
Search period end: 01 February 2021 00:00
Orbit: 452 x 502 km, 97.2° (Epoch: 21 January)

Date Brightness Start Highest point End Pass type
(mag) Time Alt. Az. Time Alt. Az. Time Alt. Az.
22 Jan 9.5 03:13:32 10° ENE 03:15:50 17° ESE 03:18:08 10° SE visible
23 Jan 7.3 04:19:25 10° NNW 04:22:22 28° W 04:25:20 10° SW visible
24 Jan 6.3 03:52:26 10° N 03:55:49 89° NW 03:59:15 10° S visible
25 Jan 8.6 03:26:21 10° NE 03:29:19 28° ESE 03:32:19 10° SSE visible
26 Jan 10.0 03:02:04 10° E 03:02:52 11° ESE 03:03:39 10° ESE visible
27 Jan 6.6 04:06:02 10° N 04:09:19 48° W 04:12:39 10° SSW visible
28 Jan 7.3 03:39:29 10° NNE 03:42:47 50° ESE 03:46:09 10° S visible
29 Jan 9.4 03:13:56 10° ENE 03:16:18 18° ESE 03:18:41 10° SSE visible
30 Jan 7.4 04:19:52 10° NNW 04:22:48 27° W 04:25:47 10° SW visible
31 Jan 6.3 03:52:51 10° N 03:56:14 87° WNW 03:59:42 10° SSW visible
